Regional Weather Roundup
Issued by NWS

Home | Current Version | Previous Version | Text Only | Print | Product List | Glossary On
Versions: 1 2 3 4 5 6 7 8 9 10 11 12 13 14 15 16 17 18 19 20 21 22 23 24 25 26 27 28 29 30 31 32 33 34 35 36 37 38 39 40 41 42 43 44 45 46 47 48 49 50
000
ASUS44 KFWD 300703
RWRTX
NORTH TEXAS HOURLY WEATHER ROUNDUP
NATIONAL WEATHER SERVICE FORT WORTH TX
200 AM CDT SAT MAY 30 2015

NOTE: "FAIR" INDICATES FEW OR NO CLOUDS BELOW 12,000 FEET WITH NO
SIGNIFICANT WEATHER AND/OR OBSTRUCTIONS TO VISIBILITY.

TXZ118-119-300800-
DALLAS/FORT WORTH METROPLEX

CITY           SKY/WX    TMP DP  RH WIND       PRES   REMARKS
DFW AIRPORT    MOCLDY    71  67  87 NE5       29.96F
DALLAS LOVE    MOCLDY    72  68  87 NE3       29.97F THUNDER
FTW MEACHAM    PTCLDY    73  68  84 NE7       29.96F
DAL-EXECUTIVE  PTCLDY    70  67  90 E5        29.96F
FTW-ALLIANCE   MOCLDY    71  69  93 CALM      29.97F THUNDER
FTW-NAS-JRB    PTCLDY    74  68  81 E3        29.96F
FTW-SPINKS     CLEAR     69  67  92 CALM      29.97F
ARLINGTON      CLEAR     70  66  87 NE3       29.96F
GRAND PRAIRIE  PTCLDY    72  68  88 CALM      29.98F
ADDISON        PTCLDY    73  71  94 NE6       29.99S
MESQUITE       MOCLDY    70  69  96 CALM      29.97F
LANCASTER      CLEAR     68  66  92 CALM      29.97F
$$

TXZ091>094-102>105-117-120-121-131>134-300800-
NORTH CENTRAL TEXAS

CITY           SKY/WX    TMP DP  RH WIND       PRES   REMARKS
SHRMAN/DENISON CLEAR     67  67  98 CALM      30.00S
GAINESVILLE    CLEAR     66  65  96 CALM      30.00F
BOWIE          CLEAR     65  65 100 CALM      29.99F
BRIDGEPORT     CLOUDY    70  70 100 E3        29.99F
DECATUR        CLOUDY    69  67  93 E7        29.99F
DENTON         CLOUDY    70  69  97 SE3       29.97F
MCKINNEY       MOCLDY    70  69  97 N3        29.98F
GREENVILLE     CLOUDY    70  68  94 CALM      29.99S
ROCKWALL       MOCLDY    71  69  95 CALM      29.97S
TERRELL        CLOUDY    71  69  93 CALM      29.98F
WAXAHACHIE     CLEAR     70  69  97 E3        29.97F
CLEBURNE       CLEAR     70  70 100 E7        29.97F
GRANBURY       PTCLDY    73  68  84 E6        29.96F
$$

TXZ083>090-098>101-113>116-127>130-139>142-154-155-300800-
WESTERN NORTH TEXAS

CITY           SKY/WX    TMP DP  RH WIND       PRES   REMARKS
WICHITA FALLS  PTCLDY    68  65  90 CALM      29.98F
WF-KICKAPOO    PTCLDY    70  67  90 CALM      30.00S
VERNON         CLOUDY    71  63  76 E5        30.02R
ABILENE        CLOUDY    73  65  75 W25G39    29.99R THUNDER
ABILENE-DYESS  TSTM      66  59  77 NW29G38   30.00R
BRECKENRIDGE   CLOUDY    74  66  75 E10       29.95S
GRAHAM         PTCLDY    71  68  90 E3        29.94F
MINERAL WELLS  PTCLDY    72  67  84 SE5       29.95F
STEPHENVILLE   PTCLDY    71  67  86 CALM      29.98F
COMANCHE       CLEAR     71  71 100 SE6       29.96F
COLEMAN        PTCLDY    72  69  91 S8        29.99R
BRADY          CLEAR     72  70  94 S5        29.99S
$$

TXZ143>147-156>162-174-175-300800-
CENTRAL TEXAS

CITY           SKY/WX    TMP DP  RH WIND       PRES   REMARKS
WACO           CLEAR     73  69  87 SE7       29.96F
WACO-MCGREGOR  CLEAR     72  66  83 S7        29.97F
CORSICANA      PTCLDY    75  68  78 S8        29.98F
MEXIA          CLEAR     71  69  93 S3        29.97S
HEARNE         CLEAR     73  71  92 SE5       29.99S
CAMERON        CLEAR     74  71  90 S8        29.98R
TEMPLE         CLEAR     73  64  73 S10       29.96F
KILLEEN        CLEAR     71  68  90 S7        29.96F
KILLEEN-SKYLRK CLEAR     73  64  73 S8        29.97F
FORT HOOD      CLEAR     74  68  81 S9        29.96F
HAMILTON       CLEAR     72  72 100 S13       29.98F
LAMPASAS       CLEAR     76  72  88 S3        29.97F
$$

TXZ095>097-106>112-122>126-135>138-148>153-164>167-300800-
EAST TEXAS

CITY           SKY/WX    TMP DP  RH WIND       PRES   REMARKS
PARIS          CLEAR     68  63  83 NW5       29.99S
SULPHUR SPRNGS CLOUDY    72  70  94 CALM      30.01S
MOUNT PLEASANT MOCLDY    71  68  92 W3        30.00S
GILMER         CLOUDY   N/A N/A N/A CALM      29.98S
MINEOLA        MOCLDY    70  70 100 CALM      29.99S
TYLER          PTCLDY    73  69  87 CALM      29.98S
LONGVIEW       CLEAR     72  69  90 S5        29.97S
MARSHALL       PTCLDY    73  71  91 S3        30.01R
ATHENS         PTCLDY    70  70 100 CALM      29.96F
PALESTINE      CLEAR     72  69  91 SE3       29.99F
JACKSONVILLE   CLEAR     73  70  91 S7        30.01F
NACOGDOCHES    CLEAR     72  70  94 S3        29.99F
LUFKIN         CLEAR     74  70  87 S3        29.99S
$$

SUPPLEMENTAL OBSERVATIONS (CENTRAL)

CITY           SKY/WX    TMP DP  RH WIND       PRES   REMARKS
$$

SUPPLEMENTAL OBSERVATIONS (WEST)

CITY           SKY/WX    TMP DP  RH WIND       PRES   REMARKS
$$

SUPPLEMENTAL OBSERVATIONS (EAST)

CITY           SKY/WX    TMP DP  RH WIND       PRES   REMARKS
$$

SUPPLEMENTAL OBSERVATIONS ARE A COLLECTION OF AUTOMATED INSTRUMENTS
THAT ARE MAINTAINED BY A VARIETY OF FEDERAL AND STATE AGENCIES.
CERTAIN ELEMENTS...SUCH AS HUMIDITY VALUES AND SUSTAINED WIND
SPEEDS...MAY BE APPROXIMATED.




USA.gov is the U.S. government's official web portal to all federal, state and local government web resources and services.